HORIZONS-2

Last updated on Sun Jun 21 2026 00:03:04 GMT+0000 (Coordinated Universal Time)

1 32388U 07063B 26171.37127980 -.00000259 00000+0 00000+0 0 9999 2 32388 2.6113 80.5890 0003923 0.1145 247.7301 1.00272829 67847
UTC large
Height (km)
Speed (km/s)
/
Latitude / Longitude
Inclination (degrees)
Orbital Period (minutes)
Azimuth
Elevation
Range (km)
Doppler Factor

Next 0 passes for location: London (51.5072 / 0.1276)

No passes found over London.
HORIZONS-2